Notices

What's New in latest Release from April 7th, 2021:

- Updated Glossary, including Speed of Maximum Gust, and Total Hourly Precipitation

- Updated national and regional climate services offices contacts and prices information

- Addition of station inventory lists for 1981-2010, 1971-2000, and 1961-1990 Normals.

If you haven't already, please take our survey and provide feedback about our website: https://eccc.sondage-survey.ca/f/LanguageSelection.aspx?s=442ca660-fcf1-47c0-95a9-59707d6fd709

Hourly Data Report for January 12, 2012

HALIFAX STANFIELD INT'L A
NOVA SCOTIA

44°52'48.060" N
63°30'00.050" W
145.40 m
8202250
71395
YHZ

Download Data

Hourly Data (January 2012)
Hourly Data Report for January 12, 2012
TIME
LST
Temp Definition
°C
Dew Point Definition
°C
Rel Hum Definition
%
Precip. Amount Definition
mm

Wind Dir Definition
10's deg

Wind Spd Definition
km/h
Visibility Definition
km
Stn Press Definition
kPa
Hmdx Definition


Wind Chill Definition


Weather Definition


00:00 -13.1 -15.0 86   34 9 24.1 100.44   -19 Clear
01:00 -13.3 -14.9 88   31 7 24.1 100.59   -18 Clear
02:00 -13.1 -14.8 87   36 9 24.1 100.59   -19 Clear
03:00 -12.5 -14.8 83   1 7 24.1 100.64   -17 Mostly Cloudy
04:00 -12.8 -15.3 81   2 4 24.1 100.66   -15 Mainly Clear
05:00 -11.7 -14.8 78   36 6 24.1 100.72   -15 Mostly Cloudy
06:00 -11.5 -14.8 76   5 6 24.1 100.70   -15 Mostly Cloudy
07:00 -11.9 -14.9 78   5 4 24.1 100.76   -14 Mainly Clear
08:00 -11.1 -13.9 80   9 7 24.1 100.73   -15 Mostly Cloudy
09:00 -10.3 -13.3 79   9 7 24.1 100.83   -14 Mostly Cloudy
10:00 -9.1 -12.6 76   11 11 24.1 100.83   -15 Cloudy
11:00 -8.1 -11.9 74   9 15 24.1 100.76   -14 Cloudy
12:00 -6.7 -11.4 69   11 13 24.1 100.64   -12 Cloudy
13:00 -6.1 -10.7 70   9 17 24.1 100.51   -12 Cloudy
14:00 -5.5 -10.1 70   10 17 24.1 100.45   -12 Cloudy
15:00 -5.5 -9.1 76   11 26 4.8 100.43   -13 Snow
16:00 -6.0 -7.8 87   8 24 2.4 100.27   -13 Snow
17:00 -5.7 -7.0 91   9 22 2.4 100.15   -13 Snow
18:00 -5.1 -6.2 92   10 28 1.6 99.96   -13 Snow
19:00 -3.5 -4.4 93   11 37 1.6 99.84   -12 Snow
20:00 -2.6 -3.5 94   11 43 1.6 99.59   -11 Snow
21:00 -2.1 -2.8 95   10 41 1.2 99.43   -10 Snow
22:00 -1.4 -2.5 92   10 37 2.4 99.20   -9 Snow
23:00 -1.1 -2.0 94   11 44 1.2 99.09   -9 Snow,Ice Pellets

Notes on Data Quality.

Legend

  • E = Estimated
  • M = Missing
  • NA = Not Available*
  • [empty] = Indicates an unobserved value
Date modified: